| time (UTC) | temp F | wind direction | speed knots | gust knots | rain 1hr in | rain 24hr in | rain mn in | humidity % | barometer mb |
| 20260505011548 | 70 | 208 | 0.0 | 0.0 | 0.00 | 0.00 | 0.00 | 58 | 1012.0 |
| 20260505010037 | 71 | 208 | 0.0 | 0.0 | 0.00 | 0.00 | 0.00 | 57 | 1011.8 |
| 20260505004541 | 72 | 242 | 0.0 | 3.5 | 0.00 | 0.00 | 0.00 | 56 | 1011.9 |
| 20260505003033 | 72 | 215 | 0.0 | 3.5 | 0.00 | 0.00 | 0.00 | 56 | 1011.9 |
| 20260505001533 | 73 | 250 | 0.0 | 6.1 | 0.00 | 0.00 | 0.00 | 55 | 1011.5 |
| 20260505000132 | 74 | 186 | 0.0 | 6.1 | 0.00 | 0.00 | 0.00 | 55 | 1011.9 |
| 20260504234559 | 74 | 228 | 0.9 | 7.0 | 0.00 | 0.00 | 0.00 | 54 | 1011.9 |
| 20260504233102 | 75 | 209 | 1.7 | 8.7 | 0.00 | 0.00 | 0.00 | 53 | 1012.1 |
| 20260504231555 | 76 | 238 | 1.7 | 12.2 | 0.00 | 0.00 | 0.00 | 52 | 1012.1 |
| 20260504230054 | 76 | 248 | 0.9 | 15.6 | 0.00 | 0.00 | 0.00 | 51 | 1012.3 |
| 20260504224553 | 76 | 207 | 2.6 | 13.0 | 0.00 | 0.00 | 0.00 | 51 | 1012.3 |
| 20260504223056 | 77 | 228 | 0.0 | 17.4 | 0.00 | 0.00 | 0.00 | 51 | 1012.3 |
| 20260504221603 | 78 | 253 | 0.9 | 11.3 | 0.00 | 0.00 | 0.00 | 51 | 1012.3 |
| 20260504220113 | 77 | 257 | 3.5 | 14.8 | 0.00 | 0.00 | 0.00 | 51 | 1012.4 |
| 20260504214548 | 78 | 246 | 2.6 | 14.8 | 0.00 | 0.00 | 0.00 | 51 | 1012.3 |
| 20260504213057 | 78 | 259 | 2.6 | 13.9 | 0.00 | 0.00 | 0.00 | 51 | 1012.4 |
| 20260504211545 | 78 | 234 | 2.6 | 11.3 | 0.00 | 0.00 | 0.00 | 52 | 1012.6 |
| 20260504210042 | 78 | 261 | 1.7 | 13.9 | 0.00 | 0.00 | 0.00 | 52 | 1012.6 |
| 20260504204556 | 79 | 254 | 1.7 | 13.0 | 0.00 | 0.00 | 0.00 | 51 | 1012.8 |
| 20260504203037 | 79 | 250 | 1.7 | 9.6 | 0.00 | 0.00 | 0.00 | 52 | 1013.1 |
| 20260504201533 | 78 | 118 | 1.7 | 13.0 | 0.00 | 0.00 | 0.00 | 52 | 1013.2 |
| 20260504200029 | 78 | 234 | 5.2 | 12.2 | 0.00 | 0.00 | 0.00 | 52 | 1013.5 |
| 20260504194531 | 78 | 252 | 3.5 | 12.2 | 0.00 | 0.00 | 0.00 | 53 | 1013.8 |
| 20260504193026 | 78 | 241 | 5.2 | 11.3 | 0.00 | 0.00 | 0.00 | 55 | 1014.2 |
| 20260504191524 | 77 | 195 | 3.5 | 11.3 | 0.00 | 0.00 | 0.00 | 54 | 1014.3 |
| 20260504190020 | 77 | 248 | 3.5 | 11.3 | 0.00 | 0.00 | 0.00 | 55 | 1014.6 |
| 20260504184530 | 77 | 263 | 1.7 | 8.7 | 0.00 | 0.00 | 0.00 | 55 | 1014.5 |
| 20260504183021 | 77 | 281 | 2.6 | 8.7 | 0.00 | 0.00 | 0.00 | 57 | 1014.7 |
| 20260504181518 | 77 | 230 | 1.7 | 10.4 | 0.00 | 0.00 | 0.00 | 58 | 1014.8 |
| 20260504180013 | 76 | 156 | 6.1 | 12.2 | 0.00 | 0.00 | 0.00 | 59 | 1015.2 |
| 20260504174511 | 76 | 129 | 4.3 | 13.0 | 0.00 | 0.00 | 0.00 | 59 | 1015.2 |
| 20260504173010 | 76 | 198 | 3.5 | 10.4 | 0.00 | 0.00 | 0.00 | 63 | 1015.4 |
| 20260504171507 | 76 | 213 | 2.6 | 11.3 | 0.00 | 0.00 | 0.00 | 65 | 1015.5 |
| 20260504081550 | 60 | 360 | 0.0 | 5.2 | 0.00 | 0.00 | 0.00 | 73 | 1016.4 |
| 20260504050021 | 61 | 360 | 0.0 | 0.0 | 0.00 | 0.00 | 0.00 | 67 | 1017.7 |
| 20260504044521 | 61 | 360 | 0.0 | 3.5 | 0.00 | 0.00 | 0.00 | 66 | 1017.7 |
| 20260504043034 | 62 | 360 | 0.0 | 3.5 | 0.00 | 0.00 | 0.00 | 66 | 1017.5 |
| 20260504041518 | 62 | 360 | 0.0 | 1.7 | 0.00 | 0.00 | 0.00 | 65 | 1017.5 |
| 20260504040020 | 61 | 360 | 0.0 | 2.6 | 0.00 | 0.00 | 0.00 | 65 | 1017.6 |
| 20260504034549 | 61 | 360 | 0.0 | 0.9 | 0.00 | 0.00 | 0.00 | 65 | 1017.6 |
| 20260504033046 | 61 | 360 | 0.0 | 1.7 | 0.00 | 0.00 | 0.00 | 65 | 1018.0 |
| 20260504031544 | 60 | 360 | 0.0 | 0.0 | 0.00 | 0.00 | 0.00 | 65 | 1018.1 |
| 20260504030044 | 61 | 360 | 0.0 | 0.0 | 0.00 | 0.00 | 0.00 | 64 | 1018.1 |
| 20260504024548 | 61 | 360 | 0.0 | 0.0 | 0.00 | 0.00 | 0.00 | 64 | 1017.9 |
| 20260504023042 | 61 | 360 | 0.0 | 0.0 | 0.00 | 0.00 | 0.00 | 63 | 1017.8 |
| 20260504021540 | 62 | 360 | 0.0 | 0.0 | 0.00 | 0.00 | 0.00 | 63 | 1017.8 |
| 20260504020111 | 62 | 227 | 0.0 | 0.0 | 0.00 | 0.00 | 0.00 | 63 | 1017.6 |
| 20260504014554 | 62 | 360 | 0.0 | 0.9 | 0.00 | 0.00 | 0.00 | 62 | 1017.8 |
| 20260504013047 | 64 | 360 | 0.0 | 0.0 | 0.00 | 0.00 | 0.00 | 60 | 1017.6 |